User: anonymous   Login
Location: Brookview Estates
(36.0476°N, 86.6931°W)
Time: 15:05:17
(UTC+00:00)
Language:

CZ-4B R/B - Orbit

View from above orbital plane
View from above orbital plane
View from above satellite
View from above satellite

Ground track
Ground track

The orbit data is extracted from the following two-line orbital elements,

1 29093U 06015B   21164.07911195  .00004676  00000-0  83859-4 0  9992
2 29093  97.6333 356.1906 0051078  93.9971 266.7120 15.49020700842359
Epoch (UTC): 13 June 2021 01:53:55
Eccentricity: 0.0051078
inclination: 97.6333°
perigee height: 385 km
apogee height: 454 km
right ascension of ascending node: 356.1906°
argument of perigee: 93.9971°
revolutions per day: 15.49020700
mean anomaly at epoch: 266.7120°
orbit number at epoch: 84235

The dashed part of the orbit path shows where the satellite is in the earth's shadow,  

DLR